Regional Weather Roundup
Issued by NWS Wakefield, VA

Home | Current Version | Previous Version | Graphics & Text | Print | Product List | Glossary On
Versions: 1 2 3 4 5 6 7 8 9 10 11 12 13 14 15 16 17 18 19 20 21 22 23 24 25 26 27
000
ASUS41 KAKQ 240110
RWRAKQ

REGIONAL WEATHER ROUNDUP
NATIONAL WEATHER SERVICE WAKEFIELD VA
900 PM EDT WED APR 23 2014

Note: "fair" indicates few or no clouds below 12,000 feet with no
significant weather and/or obstructions to visibility. * = Denotes
station may not report precipitation (e.g., rain,snow,etc.),
thunder or fog.

VAZ042-051-052>054-056-240200-
NORTHERN VIRGINIA

CITY           SKY/WX    TMP DP  RH WIND       PRES   REMARKS
WASH NATIONAL  PTCLDY    54  32  43 NW14G23   29.94R
DULLES         PTCLDY    51  31  46 NW20G29   29.94R
FORT BELVOIR   CLEAR     53  32  45 NW9       29.95R
QUANTICO       CLEAR     54  31  41 NW15G21   29.95R
FREDERICKSBRG* CLEAR     56  33  40 N6        29.95R
STAFFORD*      CLEAR     52  35  53 NW6       29.99R
WARRENTON      CLEAR     53  38  57 NW9       29.96R
CULPEPER*      CLEAR     55  28  35 NW8       29.97R
MANASSAS*      CLEAR     52  34  50 N7        29.96R
LEESBURG*      CLEAR     50  36  57 N8        29.97R
WINCHESTER     CLEAR     50  32  50 NW21G26   29.97R
$$

VAZ048-049-060>072-079>083-240200-
CENTRAL AND SOUTH CENTRAL VIRGINIA...AND NORTH CENTRAL NORTH CAROLINA

CITY           SKY/WX    TMP DP  RH WIND       PRES   REMARKS
RICHMOND       CLEAR     59  29  31 N13       29.92R
CHESTERFIELD*  CLEAR     59  27  29 N8        29.94R
HANOVER        CLEAR     57  32  38 NW5       29.95R
TAPPAHANNOCK*  CLEAR     55  29  36 NW3       29.93R
CHARLOTTSVILLE CLEAR     54  28  36 N9        29.96R
ORANGE*        CLEAR     54  30  40 W5        29.98R
LOUISA*        CLEAR     54  30  40 W10       29.95R
FARMVILLE*     CLEAR     57  28  33 N7        29.92R
SOUTH HILL*    CLEAR     61  34  36 N7        29.96R
ROANOKE RAPIDS CLEAR     46  30  53 N6        29.90R
RALEIGH        PTCLDY    62  29  28 CALM      29.92R
$$

VAZ088>098-240200-
SOUTHEAST VIRGINIA

CITY           SKY/WX    TMP DP  RH WIND       PRES   REMARKS
NORFOLK        CLEAR     58  41  53 N13G21    29.89R
VIRGINIA BEACH CLEAR     58  36  43 N15       29.88R
NORFOLK NAVAL  CLEAR     59  41  51 N12       29.91R
WEST POINT*    CLEAR     59  29  32 NW6       29.93R
NEWPORT NEWS   CLEAR     58  36  43 N7        29.90R
LANGLEY AFB    CLEAR     57  38  48 N6        29.90R
FORT EUSTIS    CLEAR     59  38  45 N6        29.89R
WILLIAMSBURG*  CLEAR     57  37  47 N6        29.91R
FRANKLIN*      CLEAR     57  36  44 CALM      29.90R
WAKEFIELD      CLEAR     58  33  39 VRB3      29.91R
$$

VAZ020-022-025-037-045-240200-
WESTERN AND SOUTHWEST VIRGINIA

CITY           SKY/WX    TMP DP  RH WIND       PRES   REMARKS
STAUNTON*      CLEAR     48  28  46 NW5       29.99R
HOT SPRINGS VA CLEAR     43  27  52 NW18G25   30.01R
LYNCHBURG      CLEAR     61  27  27 N5        29.96R
DANVILLE       CLEAR     61  31  32 N8        29.93R
MARTINSVILLE   CLEAR     55  31  40 CALM      29.98R
ROANOKE        CLEAR     56  27  32 N8        29.99R
BLACKSBURG     CLEAR     52  30  43 NW12      30.01R
DUBLIN*        CLEAR     52  26  36 N6        30.01R
MARION*        CLEAR     51  23  33 W6        30.04R
HILLSVILLE*    CLEAR     54  10  17 NW10      30.01R
RICHLANDS*     CLEAR     54  24  30 NW7       30.03R
WISE*          CLEAR     52  23  32 N5        30.04R
ABINGDON*      CLEAR     56  24  28 CALM      30.02R
$$

MDZ021>025-VAZ099-100-240200-
SOUTHERN MARYLAND AND THE DELMARVA PENINSULA

CITY           SKY/WX    TMP DP  RH WIND       PRES   REMARKS
PATUXENT RIVER CLEAR     54  32  43 NW21G31   29.89R
BAY BRIDGE APT CLEAR     52  34  50 NW25G31   29.90R
LEONARDTOWN    CLEAR     52  32  46 NW8       29.93R
DOVER          CLEAR     52  34  50 NW18G31   29.83R
GEORGETOWN     CLEAR     54  35  48 NW10G21   29.85R
EASTON         CLEAR     54  37  54 NW15G26   29.92R
CAMBRIDGE      PTCLDY    55  34  44 NW10G25   29.88R
SALISBURY      CLEAR     55  36  48 NW13      29.86R
OCEAN CITY     CLEAR     54  36  50 NW12G20   29.83R
WALLOPS ISLAND CLEAR     55  38  52 NW15G25   29.86R
ACCOMACK*      CLEAR     54  39  58 NW12G18   29.87R
$$

NCZ012>017-030>032-240200-
EASTERN NORTH CAROLINA

CITY           SKY/WX    TMP DP  RH WIND       PRES   REMARKS
ELIZABETH CITY CLEAR     59  39  47 N7        29.89R
AHOSKIE*       CLEAR     55  38  53 CALM      29.90R
EDENTON*       CLEAR     56  41  55 CALM      29.89R
CURRITUCK*     CLEAR     57  32  37 CALM      29.89R
KILL DEVIL HLS CLEAR     53  43  67 N7        29.87R
MANTEO         CLEAR     53  40  61 N5        29.89R
CAPE HATTERAS  CLEAR     50  41  71 E5        29.90R
GOLDSBORO      CLEAR     58  38  48 E1        29.88R
WASHINGTON     CLEAR     58  38  48 CALM      29.89R
GREENVILLE     CLEAR     54  43  66 CALM      29.92R
NEW BERN       CLEAR     57  40  52 CALM      29.90R
WILMINGTON     CLEAR     64  38  38 CALM      29.89R
$$

VAZ048-240200-
ELSEWHERE

CITY           SKY/WX    TMP DP  RH WIND       PRES   REMARKS
HARRISBURG PA  PTCLDY    47  29  49 NW22      29.92R
BALTIMORE      PTCLDY    50  31  48 NW16G29   29.92R
ANNAPOLIS      CLEAR     53  35  50 NW15G25   29.91R
ANDREWS AFB    CLEAR     52  32  46 NW23G30   29.92R
WILMINGTON DE  PTCLDY    50  32  50 NW18G29   29.87R
PHILADELPHIA   MOCLDY    54  30  40 NW25G31   29.84R
WILDWOOD NJ*   CLEAR     52  36  54 NW16G30   29.83
ATLANTIC CITY  CLOUDY    54  32  43 NW23G33   29.78R
HENDERSON NC   CLEAR     61  27  27 NW7       29.91R
GREENSBORO     PTCLDY    62  25  24 CALM      29.93R
ROCKY MOUNT    CLEAR     53  39  59 S3        29.89R
FAYETTEVILLE   CLEAR     64  31  28 N3        29.89R
CHARLOTTE      CLEAR     62  27  26 N6        29.92R
$$

VAZ100-240200-
MARINE

STATION/POSITION TIME  TEMP    WIND        PRES    WAVE   SWELL
                       AIR SEA DIR/SP/G            HT/PER HT/PER
                 (UTC) (F)     (DEG/KT/KT) (MB)    (FT/S) (FT/S)
44066 TX TWR #4  0100   48 44  320/ 23/ 27 1004.8R   5/ 6   2/ 9
CAPE MAY NJ      0100   53 60  330/ 22/ 28 1009.4R
LEWES DE         0100   54 53  330/ 24/ 32 1009.4R
15NM E FENWICK I 0100   51 47              1009.4R   3/ 4
OCEAN-CITY-INLET 0100   54 49  320/ 15/ 19 1009.6R
WACHAPREAGUE VA  0100   55 60  310/  3/ 12 1010.9R
THOMAS POINT MD  0100   53 53  320/ 20/ 25 1013.2R
GOOSES REEF MD   0100   54     330/ 17/ 23   N/A
COVE POINT MD    0100   54     330/ 12/ 19 1011.9R
SOLOMONS ISLAND  0100      55                N/A
BISHOPS HEAD MD  0100   55 59  330/ 13/ 24 1011.4R
PINEY POINT MD   0100          330/ 22/ 25   N/A
POTOMAC MD       0100   56     330/ 16/ 17 1011.4R
CAMBRIDGE MD     0100   55 58  310/ 17/ 23 1011.3R
LEWISETTA VA     0100   56 58  330/ 13/ 20 1012.6R
RAPPAHANNOCK LGT 0100          320/ 21/ 23 1011.8R
STINGRAY PT      0100   58     340/ 14/ 17 1012.0R
YORK RVR RNG VA  0100   59     350/ 16/ 19 1011.4R
YORKTOWN VA      0100   59 56  350/ 10/ 11 1012.1R
JAMESTOWN VA     0100   60      20/  8/ 10   N/A
DOMINION TERM VA 0100   61      40/  2/  5 1012.0R
KIPTOPEKE VA     0100      56  360/ 18/ 22   N/A
CHES BAY BRIDGE  0100   58 54  330/ 15/ 18 1011.8R
CAPE HENRY VA    0100   58     330/ 20/ 22   N/A
CHESAPEAKE LGHT  0000   57     330/ 24/ 24 1010.9R
WILLOUBY STN VA  0100   59     360/ 12/ 15 1011.2R
S CRANEY ISL VA  0100          320/  9/ 13 1011.7R
CAPE HENRY BUOY  0100      48                N/A     3/ 4
1ST LANDING BUOY 0100      49                N/A     3/ 9   2/ 9
64NM E OF VA BCH 0100   52 49  320/ 14/ 16 1011.0R   4/ 5   2/ 9
DUCK PIER NC     0100   54 51   10/ 13/ 14 1010.7R
44100 DUCK FRF   0100      49                N/A     3/ 5
44056 DUCK FRF   0100      50                N/A     3/ 5   2/14
OREGON INLET NC  0100   53 55  350/  5/  6 1011.8R
HATTERAS NC      0100   55 62   70/  5/  8 1012.4R
DIAMOND SHLS NC  0100   62 75   30/ 12/ 14 1012.0R   4/ 9   3/ 9
CAPE LOOKOUT NC  0000   62     190/  2/  2 1010.9R
FRYING PAN SHLS  0100   67 68  260/ 10/ 12 1011.3R   2/ 8   2/ 8
$$



USA.gov is the U.S. government's official web portal to all federal, state and local government web resources and services.